| time (UTC) | temp F | wind direction | speed MPH | gust MPH | rain 1hr in | rain 24hr in | rain mn in | humidity % | barometer mb |
| 20260508130835 | 45 | 33 | 3.0 | 5.0 | 0.00 | 0.01 | 0.01 | 81 | 1015.2 |
| 20260508130332 | 44 | 36 | 2.0 | 5.0 | 0.00 | 0.01 | 0.01 | 79 | 1014.9 |
| 20260508125828 | 45 | 11 | 3.0 | 6.0 | 0.00 | 0.01 | 0.01 | 79 | 1015.0 |
| 20260508125324 | 46 | 55 | 2.0 | 5.0 | 0.00 | 0.01 | 0.01 | 80 | 1014.8 |
| 20260508124823 | 45 | 17 | 1.0 | 3.0 | 0.00 | 0.01 | 0.01 | 79 | 1015.0 |
| 20260508124319 | 44 | 6 | 0.0 | 3.0 | 0.00 | 0.01 | 0.01 | 81 | 1015.2 |
| 20260508123817 | 44 | 30 | 5.0 | 6.0 | 0.00 | 0.01 | 0.01 | 81 | 1015.0 |
| 20260508123315 | 44 | 84 | 1.0 | 5.0 | 0.00 | 0.01 | 0.01 | 83 | 1014.9 |
| 20260508122811 | 43 | 359 | 1.0 | 3.0 | 0.00 | 0.01 | 0.01 | 84 | 1015.3 |
| 20260508122309 | 43 | 343 | 2.0 | 3.0 | 0.00 | 0.01 | 0.01 | 84 | 1015.4 |
| 20260508121806 | 43 | 302 | 5.0 | 7.0 | 0.00 | 0.01 | 0.01 | 83 | 1015.2 |
| 20260508121305 | 42 | 298 | 3.0 | 3.0 | 0.00 | 0.01 | 0.01 | 84 | 1015.3 |
| 20260508120801 | 42 | 316 | 4.0 | 6.0 | 0.00 | 0.01 | 0.01 | 83 | 1015.5 |
| 20260508120259 | 43 | 329 | 9.0 | 9.0 | 0.00 | 0.01 | 0.01 | 83 | 1015.5 |
| 20260508115757 | 43 | 327 | 4.0 | 8.0 | 0.00 | 0.01 | 0.01 | 83 | 1015.3 |
| 20260508115254 | 43 | 352 | 5.0 | 6.0 | 0.00 | 0.01 | 0.01 | 84 | 1015.2 |
| 20260508114750 | 43 | 311 | 2.0 | 3.0 | 0.00 | 0.01 | 0.01 | 85 | 1015.0 |
| 20260508114247 | 42 | 317 | 3.0 | 3.0 | 0.00 | 0.01 | 0.01 | 86 | 1015.0 |
| 20260508113743 | 41 | 11 | 0.0 | 1.0 | 0.00 | 0.01 | 0.01 | 87 | 1015.0 |
| 20260508113242 | 41 | 345 | 1.0 | 3.0 | 0.00 | 0.01 | 0.01 | 87 | 1015.1 |
| 20260508112738 | 41 | 357 | 1.0 | 2.0 | 0.00 | 0.01 | 0.01 | 88 | 1015.4 |
| 20260508112235 | 41 | 327 | 1.0 | 3.0 | 0.00 | 0.01 | 0.01 | 88 | 1015.4 |
| 20260508111732 | 40 | 319 | 3.0 | 3.0 | 0.00 | 0.01 | 0.01 | 90 | 1015.1 |
| 20260508111230 | 40 | 317 | 3.0 | 3.0 | 0.00 | 0.01 | 0.01 | 91 | 1015.3 |
| 20260508110727 | 39 | 310 | 4.0 | 6.0 | 0.00 | 0.01 | 0.01 | 92 | 1015.0 |
| 20260508110224 | 39 | 308 | 2.0 | 2.0 | 0.00 | 0.01 | 0.01 | 92 | 1015.0 |
| 20260508105723 | 38 | 322 | 0.0 | 2.0 | 0.00 | 0.01 | 0.01 | 92 | 1015.2 |
| 20260508105220 | 38 | 323 | 0.0 | 1.0 | 0.00 | 0.01 | 0.01 | 92 | 1015.3 |
| 20260508104713 | 38 | 328 | 0.0 | 0.0 | 0.00 | 0.01 | 0.01 | 92 | 1014.9 |
| 20260508104209 | 38 | 295 | 0.0 | 0.0 | 0.00 | 0.01 | 0.01 | 92 | 1014.9 |
| 20260508103707 | 38 | 293 | 0.0 | 1.0 | 0.00 | 0.01 | 0.01 | 92 | 1014.8 |
| 20260508103204 | 38 | 299 | 1.0 | 1.0 | 0.00 | 0.01 | 0.01 | 92 | 1014.7 |
| 20260508102701 | 38 | 317 | 0.0 | 0.0 | 0.00 | 0.01 | 0.01 | 92 | 1014.7 |
| 20260508102159 | 38 | 334 | 1.0 | 1.0 | 0.00 | 0.01 | 0.01 | 92 | 1014.6 |
| 20260508101655 | 38 | 233 | 1.0 | 1.0 | 0.00 | 0.01 | 0.01 | 93 | 1014.4 |
| 20260508101153 | 38 | 290 | 0.0 | 1.0 | 0.00 | 0.01 | 0.01 | 93 | 1014.5 |
| 20260508100650 | 38 | 257 | 1.0 | 2.0 | 0.00 | 0.01 | 0.01 | 93 | 1014.5 |
| 20260508100149 | 38 | 244 | 2.0 | 3.0 | 0.00 | 0.01 | 0.01 | 93 | 1014.7 |
| 20260508095645 | 38 | 273 | 1.0 | 2.0 | 0.00 | 0.01 | 0.01 | 93 | 1014.6 |
| 20260508095142 | 38 | 296 | 1.0 | 3.0 | 0.00 | 0.01 | 0.01 | 93 | 1014.5 |
| 20260508094638 | 38 | 231 | 4.0 | 5.0 | 0.00 | 0.01 | 0.01 | 93 | 1014.7 |
| 20260508094135 | 38 | 251 | 3.0 | 6.0 | 0.00 | 0.01 | 0.01 | 92 | 1014.7 |
| 20260508093633 | 38 | 308 | 1.0 | 2.0 | 0.00 | 0.01 | 0.01 | 92 | 1014.7 |
| 20260508093130 | 38 | 316 | 4.0 | 7.0 | 0.00 | 0.01 | 0.01 | 92 | 1014.8 |
| 20260508092627 | 38 | 281 | 5.0 | 7.0 | 0.00 | 0.01 | 0.01 | 92 | 1014.8 |
| 20260508092126 | 38 | 341 | 2.0 | 7.0 | 0.00 | 0.01 | 0.01 | 91 | 1014.8 |
| 20260508091623 | 39 | 285 | 3.0 | 7.0 | 0.00 | 0.01 | 0.01 | 91 | 1014.7 |
| 20260508091120 | 39 | 297 | 5.0 | 8.0 | 0.07 | 0.01 | 0.01 | 90 | 1014.7 |
| 20260508090618 | 39 | 283 | 6.0 | 11.0 | 0.07 | 0.01 | 0.01 | 89 | 1014.8 |
| 20260508090115 | 39 | 306 | 11.0 | 11.0 | 0.00 | 0.00 | 0.00 | 88 | 1014.5 |
| 20260508085611 | 40 | 329 | 7.0 | 13.0 | 0.00 | 0.00 | 0.00 | 86 | 1014.6 |
| 20260508085108 | 41 | 321 | 7.0 | 8.0 | 0.00 | 0.00 | 0.00 | 83 | 1014.6 |
| 20260508084604 | 41 | 330 | 13.0 | 20.0 | 0.00 | 0.00 | 0.00 | 80 | 1014.6 |
| 20260508084101 | 42 | 315 | 11.0 | 15.0 | 0.00 | 0.00 | 0.00 | 75 | 1014.4 |
| 20260508083553 | 42 | 316 | 7.0 | 8.0 | 0.00 | 0.00 | 0.00 | 73 | 1014.3 |
| 20260508083050 | 42 | 270 | 5.0 | 7.0 | 0.00 | 0.00 | 0.00 | 73 | 1014.1 |
| 20260508082546 | 41 | 288 | 2.0 | 7.0 | 0.00 | 0.00 | 0.00 | 74 | 1014.3 |
| 20260508082043 | 41 | 312 | 5.0 | 6.0 | 0.00 | 0.00 | 0.00 | 73 | 1014.2 |
| 20260508081541 | 40 | 311 | 1.0 | 2.0 | 0.00 | 0.00 | 0.00 | 76 | 1013.9 |
| 20260508081036 | 40 | 307 | 1.0 | 2.0 | 0.00 | 0.00 | 0.00 | 77 | 1013.7 |
| 20260508080535 | 40 | 321 | 0.0 | 1.0 | 0.00 | 0.00 | 0.00 | 76 | 1013.7 |
| 20260508080032 | 39 | 326 | 0.0 | 0.0 | 0.00 | 0.00 | 0.00 | 77 | 1013.7 |
| 20260508075528 | 39 | 329 | 0.0 | 0.0 | 0.00 | 0.00 | 0.00 | 78 | 1013.7 |
| 20260508075026 | 39 | 330 | 0.0 | 0.0 | 0.00 | 0.00 | 0.00 | 78 | 1013.6 |
| 20260508074523 | 39 | 329 | 0.0 | 0.0 | 0.00 | 0.00 | 0.00 | 78 | 1013.4 |
| 20260508074020 | 39 | 326 | 0.0 | 0.0 | 0.00 | 0.00 | 0.00 | 78 | 1013.4 |
| 20260508073517 | 40 | 339 | 0.0 | 0.0 | 0.00 | 0.00 | 0.00 | 77 | 1013.7 |
| 20260508073015 | 40 | 313 | 0.0 | 1.0 | 0.00 | 0.00 | 0.00 | 77 | 1013.5 |
| 20260508072510 | 40 | 245 | 2.0 | 3.0 | 0.00 | 0.00 | 0.00 | 76 | 1013.5 |
| 20260508072008 | 39 | 258 | 0.0 | 0.0 | 0.00 | 0.00 | 0.00 | 76 | 1013.5 |
| 20260508071506 | 39 | 305 | 0.0 | 0.0 | 0.00 | 0.00 | 0.00 | 77 | 1013.2 |
| 20260508071003 | 39 | 331 | 0.0 | 0.0 | 0.00 | 0.00 | 0.00 | 77 | 1013.2 |
| 20260508070501 | 38 | 346 | 0.0 | 0.0 | 0.00 | 0.00 | 0.00 | 78 | 1013.2 |
| 20260508065958 | 39 | 346 | 0.0 | 0.0 | 0.00 | 0.00 | 0.00 | 78 | 1013.0 |
| 20260508065456 | 39 | 346 | 0.0 | 0.0 | 0.00 | 0.00 | 0.00 | 78 | 1013.5 |
| 20260508064954 | 39 | 345 | 0.0 | 0.0 | 0.00 | 0.00 | 0.00 | 77 | 1013.5 |
| 20260508064451 | 39 | 345 | 0.0 | 0.0 | 0.00 | 0.00 | 0.00 | 77 | 1013.3 |
| 20260508063949 | 39 | 344 | 0.0 | 0.0 | 0.00 | 0.00 | 0.00 | 76 | 1013.7 |
| 20260508063446 | 40 | 354 | 0.0 | 0.0 | 0.00 | 0.00 | 0.00 | 75 | 1013.7 |
| 20260508062944 | 40 | 8 | 0.0 | 0.0 | 0.00 | 0.00 | 0.00 | 73 | 1013.4 |
| 20260508062441 | 40 | 320 | 0.0 | 0.0 | 0.00 | 0.00 | 0.00 | 72 | 1013.4 |
| 20260508061938 | 39 | 303 | 0.0 | 0.0 | 0.00 | 0.00 | 0.00 | 73 | 1013.5 |
| 20260508061436 | 39 | 308 | 0.0 | 0.0 | 0.00 | 0.00 | 0.00 | 74 | 1013.3 |
| 20260508060932 | 40 | 345 | 0.0 | 0.0 | 0.00 | 0.00 | 0.00 | 74 | 1013.4 |
| 20260508060430 | 40 | 347 | 0.0 | 0.0 | 0.00 | 0.00 | 0.00 | 72 | 1013.4 |
| 20260508055925 | 40 | 340 | 0.0 | 0.0 | 0.00 | 0.00 | 0.00 | 71 | 1013.4 |
| 20260508055422 | 41 | 304 | 0.0 | 0.0 | 0.00 | 0.00 | 0.00 | 70 | 1013.4 |
| 20260508054918 | 41 | 277 | 0.0 | 0.0 | 0.00 | 0.00 | 0.00 | 69 | 1013.4 |
| 20260508054416 | 40 | 293 | 0.0 | 0.0 | 0.00 | 0.00 | 0.00 | 70 | 1013.5 |
| 20260508053913 | 40 | 268 | 0.0 | 0.0 | 0.00 | 0.00 | 0.00 | 70 | 1013.7 |
| 20260508053410 | 40 | 259 | 0.0 | 0.0 | 0.00 | 0.00 | 0.00 | 70 | 1013.7 |
| 20260508052908 | 39 | 277 | 0.0 | 0.0 | 0.00 | 0.00 | 0.00 | 72 | 1013.6 |
| 20260508052405 | 39 | 269 | 0.0 | 0.0 | 0.00 | 0.00 | 0.00 | 74 | 1014.0 |
| 20260508051901 | 38 | 292 | 0.0 | 0.0 | 0.00 | 0.00 | 0.00 | 74 | 1013.9 |
| 20260508051357 | 38 | 310 | 0.0 | 0.0 | 0.00 | 0.00 | 0.00 | 74 | 1013.9 |
| 20260508050853 | 39 | 287 | 0.0 | 0.0 | 0.00 | 0.00 | 0.00 | 74 | 1014.2 |
| 20260508050350 | 39 | 311 | 0.0 | 0.0 | 0.00 | 0.00 | 0.00 | 73 | 1014.1 |
| 20260508045845 | 39 | 285 | 0.0 | 0.0 | 0.00 | 0.00 | 0.00 | 72 | 1014.1 |
| 20260508045338 | 39 | 281 | 0.0 | 0.0 | 0.00 | 0.00 | 0.00 | 73 | 1013.7 |
| 20260508044836 | 38 | 303 | 0.0 | 0.0 | 0.00 | 0.00 | 0.00 | 74 | 1014.0 |
| 20260508044331 | 38 | 321 | 0.0 | 0.0 | 0.00 | 0.00 | 0.00 | 74 | 1013.6 |
| 20260508043828 | 37 | 312 | 0.0 | 0.0 | 0.00 | 0.00 | 0.00 | 74 | 1014.0 |
| 20260508043325 | 36 | 296 | 0.0 | 0.0 | 0.00 | 0.00 | 0.00 | 76 | 1013.7 |
| 20260508042821 | 36 | 328 | 0.0 | 0.0 | 0.00 | 0.00 | 0.00 | 75 | 1013.7 |
| 20260508042319 | 36 | 334 | 0.0 | 0.0 | 0.00 | 0.00 | 0.00 | 74 | 1013.7 |
| 20260508041816 | 37 | 328 | 0.0 | 0.0 | 0.00 | 0.00 | 0.00 | 73 | 1013.9 |
| 20260508041312 | 37 | 328 | 0.0 | 0.0 | 0.00 | 0.00 | 0.00 | 72 | 1013.6 |
| 20260508040809 | 37 | 54 | 0.0 | 0.0 | 0.00 | 0.00 | 0.00 | 74 | 1013.6 |
| 20260508040307 | 37 | 36 | 0.0 | 0.0 | 0.00 | 0.00 | 0.00 | 76 | 1013.6 |
| 20260508035803 | 38 | 4 | 0.0 | 0.0 | 0.00 | 0.01 | 0.01 | 74 | 1013.5 |
| 20260508035301 | 38 | 2 | 0.0 | 0.0 | 0.00 | 0.01 | 0.01 | 71 | 1013.3 |
| 20260508034757 | 39 | 338 | 0.0 | 0.0 | 0.00 | 0.01 | 0.01 | 68 | 1013.3 |
| 20260508034255 | 39 | 340 | 0.0 | 0.0 | 0.00 | 0.01 | 0.01 | 68 | 1013.2 |
| 20260508033751 | 40 | 348 | 0.0 | 0.0 | 0.00 | 0.01 | 0.01 | 66 | 1013.1 |
| 20260508033250 | 41 | 284 | 0.0 | 1.0 | 0.00 | 0.01 | 0.01 | 65 | 1013.2 |
| 20260508032747 | 41 | 331 | 0.0 | 0.0 | 0.00 | 0.01 | 0.01 | 64 | 1013.0 |
| 20260508032244 | 41 | 323 | 0.0 | 1.0 | 0.00 | 0.01 | 0.01 | 65 | 1013.2 |
| 20260508031741 | 41 | 347 | 0.0 | 1.0 | 0.00 | 0.01 | 0.01 | 65 | 1013.1 |
| 20260508031237 | 42 | 319 | 0.0 | 1.0 | 0.00 | 0.01 | 0.01 | 64 | 1013.1 |
| 20260508030734 | 42 | 233 | 1.0 | 1.0 | 0.00 | 0.01 | 0.01 | 63 | 1013.3 |
| 20260508030231 | 42 | 226 | 1.0 | 1.0 | 0.00 | 0.01 | 0.01 | 63 | 1013.2 |
| 20260508025727 | 42 | 197 | 1.0 | 1.0 | 0.00 | 0.01 | 0.01 | 63 | 1013.3 |
| 20260508025225 | 42 | 205 | 1.0 | 1.0 | 0.00 | 0.01 | 0.01 | 63 | 1013.2 |
| 20260508024720 | 42 | 248 | 1.0 | 1.0 | 0.00 | 0.01 | 0.01 | 63 | 1013.3 |
| 20260508024218 | 43 | 204 | 1.0 | 2.0 | 0.00 | 0.01 | 0.01 | 62 | 1013.3 |
| 20260508023714 | 43 | 202 | 1.0 | 2.0 | 0.00 | 0.01 | 0.01 | 63 | 1013.4 |
| 20260508023212 | 43 | 230 | 2.0 | 2.0 | 0.00 | 0.01 | 0.01 | 62 | 1013.4 |
| 20260508022707 | 43 | 204 | 1.0 | 2.0 | 0.00 | 0.01 | 0.01 | 61 | 1013.6 |
| 20260508022205 | 44 | 236 | 2.0 | 2.0 | 0.00 | 0.01 | 0.01 | 61 | 1013.5 |
| 20260508021701 | 44 | 220 | 1.0 | 2.0 | 0.00 | 0.01 | 0.01 | 61 | 1013.6 |
| 20260508021156 | 44 | 211 | 2.0 | 3.0 | 0.00 | 0.01 | 0.01 | 61 | 1013.5 |
| 20260508020654 | 44 | 207 | 1.0 | 2.0 | 0.00 | 0.01 | 0.01 | 62 | 1013.3 |
| 20260508020151 | 44 | 214 | 1.0 | 2.0 | 0.00 | 0.01 | 0.01 | 60 | 1013.3 |
| 20260508015649 | 44 | 256 | 1.0 | 1.0 | 0.00 | 0.01 | 0.01 | 61 | 1013.3 |
| 20260508015146 | 44 | 249 | 1.0 | 1.0 | 0.00 | 0.01 | 0.01 | 60 | 1013.5 |
| 20260508014642 | 44 | 235 | 3.0 | 3.0 | 0.00 | 0.01 | 0.01 | 60 | 1013.4 |
| 20260508014138 | 44 | 214 | 1.0 | 2.0 | 0.00 | 0.01 | 0.01 | 60 | 1013.5 |
| 20260508013634 | 43 | 227 | 1.0 | 2.0 | 0.00 | 0.01 | 0.01 | 60 | 1013.4 |
| 20260508013131 | 43 | 220 | 1.0 | 2.0 | 0.00 | 0.01 | 0.01 | 62 | 1013.5 |
| 20260508012629 | 42 | 233 | 0.0 | 0.0 | 0.00 | 0.01 | 0.01 | 62 | 1013.1 |
| 20260508012126 | 42 | 292 | 0.0 | 0.0 | 0.00 | 0.01 | 0.01 | 62 | 1013.2 |
| 20260508011624 | 43 | 255 | 1.0 | 1.0 | 0.00 | 0.01 | 0.01 | 62 | 1013.1 |
| 20260508011121 | 43 | 297 | 0.0 | 0.0 | 0.00 | 0.01 | 0.01 | 61 | 1013.1 |
| 20260508010618 | 44 | 239 | 0.0 | 0.0 | 0.00 | 0.01 | 0.01 | 60 | 1013.3 |
| 20260508010116 | 44 | 261 | 0.0 | 0.0 | 0.00 | 0.01 | 0.01 | 59 | 1013.0 |
| 20260508005612 | 43 | 314 | 0.0 | 0.0 | 0.00 | 0.01 | 0.01 | 61 | 1012.9 |
| 20260508005109 | 44 | 328 | 0.0 | 0.0 | 0.00 | 0.01 | 0.01 | 60 | 1012.9 |
| 20260508004605 | 44 | 331 | 0.0 | 0.0 | 0.00 | 0.01 | 0.01 | 59 | 1012.8 |
| 20260508004102 | 44 | 290 | 0.0 | 0.0 | 0.00 | 0.01 | 0.01 | 58 | 1012.9 |
| 20260508003558 | 44 | 315 | 0.0 | 0.0 | 0.00 | 0.01 | 0.01 | 57 | 1012.7 |
| 20260508003056 | 45 | 306 | 0.0 | 0.0 | 0.00 | 0.01 | 0.01 | 56 | 1012.9 |
| 20260508002552 | 45 | 301 | 0.0 | 0.0 | 0.00 | 0.01 | 0.01 | 56 | 1012.6 |
| 20260508002050 | 45 | 291 | 0.0 | 0.0 | 0.00 | 0.01 | 0.01 | 55 | 1012.6 |
| 20260508001545 | 46 | 323 | 0.0 | 0.0 | 0.00 | 0.01 | 0.01 | 54 | 1012.7 |
| 20260508001041 | 46 | 335 | 0.0 | 0.0 | 0.00 | 0.01 | 0.01 | 55 | 1012.2 |
| 20260508000537 | 47 | 294 | 0.0 | 1.0 | 0.00 | 0.01 | 0.01 | 54 | 1012.4 |
| 20260508000035 | 48 | 285 | 4.0 | 6.0 | 0.00 | 0.01 | 0.01 | 51 | 1012.4 |
| 20260507235531 | 49 | 292 | 3.0 | 8.0 | 0.00 | 0.01 | 0.01 | 50 | 1012.2 |
| 20260507235029 | 49 | 287 | 6.0 | 7.0 | 0.00 | 0.01 | 0.01 | 49 | 1012.2 |
| 20260507234525 | 50 | 281 | 4.0 | 6.0 | 0.00 | 0.01 | 0.01 | 48 | 1012.1 |
| 20260507234022 | 50 | 317 | 5.0 | 7.0 | 0.00 | 0.01 | 0.01 | 47 | 1012.2 |
| 20260507233518 | 51 | 344 | 5.0 | 10.0 | 0.00 | 0.01 | 0.01 | 46 | 1012.2 |
| 20260507233017 | 51 | 341 | 4.0 | 7.0 | 0.00 | 0.01 | 0.01 | 47 | 1012.1 |
| 20260507232513 | 51 | 266 | 7.0 | 7.0 | 0.00 | 0.01 | 0.01 | 46 | 1012.1 |
| 20260507232010 | 51 | 317 | 6.0 | 10.0 | 0.00 | 0.01 | 0.01 | 46 | 1012.5 |
| 20260507231507 | 52 | 302 | 10.0 | 13.0 | 0.00 | 0.01 | 0.01 | 44 | 1012.1 |
| 20260507231004 | 52 | 293 | 7.0 | 11.0 | 0.00 | 0.01 | 0.01 | 45 | 1012.0 |
| 20260507230501 | 52 | 317 | 6.0 | 11.0 | 0.00 | 0.01 | 0.01 | 46 | 1012.0 |
| 20260507225956 | 52 | 317 | 5.0 | 10.0 | 0.00 | 0.01 | 0.01 | 47 | 1012.1 |
| 20260507225452 | 52 | 309 | 5.0 | 9.0 | 0.00 | 0.01 | 0.01 | 47 | 1011.9 |
| 20260507224948 | 52 | 309 | 6.0 | 13.0 | 0.00 | 0.01 | 0.01 | 47 | 1012.1 |
| 20260507224439 | 52 | 265 | 9.0 | 11.0 | 0.00 | 0.01 | 0.01 | 45 | 1011.9 |
| 20260507223936 | 52 | 313 | 12.0 | 18.0 | 0.00 | 0.01 | 0.01 | 46 | 1012.1 |
| 20260507223432 | 53 | 358 | 7.0 | 13.0 | 0.00 | 0.01 | 0.01 | 47 | 1012.0 |
| 20260507222929 | 52 | 334 | 7.0 | 10.0 | 0.00 | 0.01 | 0.01 | 47 | 1011.8 |
| 20260507222425 | 52 | 321 | 7.0 | 10.0 | 0.00 | 0.01 | 0.01 | 46 | 1012.1 |
| 20260507221922 | 53 | 332 | 10.0 | 14.0 | 0.00 | 0.01 | 0.01 | 46 | 1011.9 |
| 20260507221418 | 53 | 277 | 12.0 | 18.0 | 0.00 | 0.01 | 0.01 | 45 | 1012.1 |
| 20260507220914 | 54 | 343 | 9.0 | 13.0 | 0.00 | 0.01 | 0.01 | 45 | 1012.4 |
| 20260507220413 | 53 | 350 | 8.0 | 20.0 | 0.00 | 0.01 | 0.01 | 47 | 1012.1 |
| 20260507215909 | 54 | 2 | 7.0 | 14.0 | 0.00 | 0.01 | 0.01 | 46 | 1012.1 |
| 20260507215406 | 54 | 262 | 8.0 | 13.0 | 0.00 | 0.01 | 0.01 | 48 | 1012.1 |
| 20260507214903 | 55 | 347 | 3.0 | 10.0 | 0.00 | 0.01 | 0.01 | 47 | 1012.1 |
| 20260507214401 | 54 | 355 | 7.0 | 9.0 | 0.00 | 0.01 | 0.01 | 45 | 1012.1 |
| 20260507213856 | 54 | 277 | 11.0 | 17.0 | 0.00 | 0.01 | 0.01 | 41 | 1011.9 |
| 20260507213353 | 54 | 305 | 12.0 | 17.0 | 0.00 | 0.01 | 0.01 | 40 | 1012.1 |
| 20260507212850 | 54 | 307 | 8.0 | 17.0 | 0.00 | 0.01 | 0.01 | 41 | 1012.2 |
| 20260507212345 | 54 | 316 | 11.0 | 17.0 | 0.00 | 0.01 | 0.01 | 39 | 1012.0 |
| 20260507211842 | 54 | 10 | 11.0 | 15.0 | 0.00 | 0.01 | 0.01 | 41 | 1012.3 |
| 20260507211338 | 54 | 326 | 10.0 | 20.0 | 0.00 | 0.01 | 0.01 | 41 | 1012.2 |
| 20260507210835 | 54 | 325 | 15.0 | 25.0 | 0.00 | 0.01 | 0.01 | 41 | 1012.2 |
| 20260507210332 | 54 | 322 | 7.0 | 24.0 | 0.00 | 0.01 | 0.01 | 42 | 1011.9 |
| 20260507205829 | 54 | 277 | 19.0 | 25.0 | 0.00 | 0.01 | 0.01 | 41 | 1012.2 |
| 20260507205326 | 53 | 334 | 8.0 | 18.0 | 0.00 | 0.01 | 0.01 | 44 | 1012.1 |
| 20260507204821 | 54 | 289 | 9.0 | 16.0 | 0.00 | 0.01 | 0.01 | 42 | 1012.1 |
| 20260507204319 | 54 | 313 | 13.0 | 17.0 | 0.00 | 0.01 | 0.01 | 41 | 1012.4 |
| 20260507203817 | 54 | 345 | 14.0 | 18.0 | 0.00 | 0.01 | 0.01 | 43 | 1012.4 |
| 20260507203315 | 54 | 285 | 9.0 | 22.0 | 0.00 | 0.01 | 0.01 | 44 | 1012.0 |
| 20260507202811 | 54 | 324 | 12.0 | 15.0 | 0.00 | 0.01 | 0.01 | 45 | 1012.2 |
| 20260507202307 | 53 | 334 | 11.0 | 18.0 | 0.00 | 0.01 | 0.01 | 44 | 1012.2 |
| 20260507201802 | 54 | 253 | 11.0 | 15.0 | 0.00 | 0.01 | 0.01 | 45 | 1012.3 |
| 20260507201258 | 55 | 320 | 11.0 | 17.0 | 0.00 | 0.01 | 0.01 | 46 | 1012.4 |
| 20260507200755 | 55 | 284 | 16.0 | 22.0 | 0.00 | 0.01 | 0.01 | 44 | 1012.3 |
| 20260507200251 | 54 | 346 | 7.0 | 15.0 | 0.00 | 0.01 | 0.01 | 46 | 1012.5 |
| 20260507195747 | 53 | 228 | 6.0 | 17.0 | 0.00 | 0.01 | 0.01 | 47 | 1012.6 |
| 20260507195245 | 54 | 295 | 10.0 | 16.0 | 0.00 | 0.01 | 0.01 | 47 | 1012.6 |
| 20260507194742 | 52 | 307 | 11.0 | 22.0 | 0.00 | 0.01 | 0.01 | 47 | 1012.6 |
| 20260507194238 | 53 | 301 | 13.0 | 18.0 | 0.00 | 0.01 | 0.01 | 48 | 1012.6 |
| 20260507193734 | 53 | 287 | 9.0 | 16.0 | 0.00 | 0.01 | 0.01 | 46 | 1012.6 |
| 20260507193231 | 53 | 295 | 13.0 | 17.0 | 0.00 | 0.01 | 0.01 | 46 | 1012.8 |
| 20260507192727 | 53 | 305 | 10.0 | 20.0 | 0.00 | 0.01 | 0.01 | 49 | 1012.7 |
| 20260507192224 | 53 | 336 | 7.0 | 17.0 | 0.00 | 0.01 | 0.01 | 49 | 1012.8 |
| 20260507191720 | 53 | 323 | 9.0 | 13.0 | 0.00 | 0.01 | 0.01 | 52 | 1012.8 |
| 20260507191212 | 52 | 307 | 9.0 | 13.0 | 0.00 | 0.01 | 0.01 | 52 | 1012.9 |
| 20260507190709 | 52 | 339 | 12.0 | 18.0 | 0.00 | 0.01 | 0.01 | 50 | 1012.8 |
| 20260507190208 | 51 | 303 | 8.0 | 17.0 | 0.00 | 0.01 | 0.01 | 51 | 1013.3 |
| 20260507185705 | 53 | 304 | 5.0 | 14.0 | 0.00 | 0.01 | 0.01 | 53 | 1013.1 |
| 20260507185157 | 54 | 285 | 15.0 | 18.0 | 0.00 | 0.01 | 0.01 | 49 | 1013.0 |
| 20260507184654 | 54 | 319 | 7.0 | 15.0 | 0.00 | 0.01 | 0.01 | 53 | 1013.1 |
| 20260507184152 | 53 | 304 | 8.0 | 13.0 | 0.00 | 0.01 | 0.01 | 50 | 1013.2 |
| 20260507183647 | 54 | 283 | 9.0 | 14.0 | 0.00 | 0.01 | 0.01 | 50 | 1013.2 |
| 20260507183145 | 53 | 317 | 9.0 | 16.0 | 0.00 | 0.01 | 0.01 | 53 | 1013.3 |
| 20260507182642 | 53 | 296 | 6.0 | 15.0 | 0.00 | 0.01 | 0.01 | 53 | 1013.4 |
| 20260507182137 | 54 | 284 | 6.0 | 11.0 | 0.00 | 0.01 | 0.01 | 53 | 1013.3 |
| 20260507181634 | 53 | 327 | 10.0 | 17.0 | 0.00 | 0.01 | 0.01 | 53 | 1013.2 |
| 20260507181130 | 53 | 300 | 11.0 | 16.0 | 0.00 | 0.01 | 0.01 | 53 | 1013.4 |
| 20260507180626 | 53 | 332 | 9.0 | 22.0 | 0.00 | 0.01 | 0.01 | 52 | 1013.7 |
| 20260507180124 | 53 | 310 | 11.0 | 17.0 | 0.00 | 0.01 | 0.01 | 54 | 1013.5 |
| 20260507175619 | 52 | 255 | 9.0 | 17.0 | 0.00 | 0.01 | 0.01 | 53 | 1013.9 |
| 20260507175117 | 52 | 295 | 15.0 | 21.0 | 0.00 | 0.01 | 0.01 | 55 | 1013.6 |
| 20260507174614 | 51 | 287 | 16.0 | 21.0 | 0.00 | 0.01 | 0.01 | 56 | 1013.4 |
| 20260507174112 | 52 | 306 | 9.0 | 18.0 | 0.00 | 0.01 | 0.01 | 57 | 1013.7 |
| 20260507173609 | 52 | 345 | 12.0 | 18.0 | 0.00 | 0.01 | 0.01 | 56 | 1013.6 |
| 20260507173106 | 52 | 279 | 6.0 | 11.0 | 0.00 | 0.01 | 0.01 | 55 | 1013.5 |
| 20260507172601 | 52 | 326 | 12.0 | 16.0 | 0.00 | 0.01 | 0.01 | 59 | 1013.7 |
| 20260507172059 | 51 | 300 | 7.0 | 18.0 | 0.00 | 0.01 | 0.01 | 56 | 1013.9 |
| 20260507171554 | 51 | 314 | 8.0 | 14.0 | 0.00 | 0.01 | 0.01 | 58 | 1014.0 |
| 20260507171051 | 50 | 301 | 9.0 | 16.0 | 0.00 | 0.01 | 0.01 | 58 | 1013.9 |
| 20260507170548 | 50 | 265 | 8.0 | 11.0 | 0.00 | 0.01 | 0.01 | 59 | 1013.9 |
| 20260507170045 | 50 | 296 | 11.0 | 14.0 | 0.00 | 0.01 | 0.01 | 58 | 1014.2 |
| 20260507165541 | 50 | 307 | 8.0 | 15.0 | 0.00 | 0.01 | 0.01 | 59 | 1014.1 |
| 20260507165032 | 50 | 320 | 9.0 | 11.0 | 0.00 | 0.01 | 0.01 | 60 | 1014.1 |
| 20260507164528 | 50 | 348 | 5.0 | 15.0 | 0.00 | 0.01 | 0.01 | 60 | 1014.1 |
| 20260507164025 | 50 | 272 | 5.0 | 9.0 | 0.00 | 0.01 | 0.01 | 61 | 1014.2 |
| 20260507163522 | 50 | 300 | 11.0 | 15.0 | 0.00 | 0.01 | 0.01 | 60 | 1014.4 |
| 20260507163020 | 50 | 305 | 6.0 | 8.0 | 0.00 | 0.01 | 0.01 | 63 | 1014.0 |
| 20260507162515 | 51 | 303 | 7.0 | 10.0 | 0.00 | 0.01 | 0.01 | 60 | 1014.1 |
| 20260507162012 | 51 | 19 | 8.0 | 11.0 | 0.00 | 0.01 | 0.01 | 59 | 1014.3 |
| 20260507161508 | 49 | 331 | 9.0 | 14.0 | 0.00 | 0.01 | 0.01 | 61 | 1014.3 |
| 20260507161005 | 50 | 300 | 8.0 | 10.0 | 0.00 | 0.01 | 0.01 | 60 | 1014.2 |
| 20260507160501 | 51 | 332 | 6.0 | 14.0 | 0.00 | 0.01 | 0.01 | 61 | 1014.5 |
| 20260507155956 | 50 | 297 | 9.0 | 13.0 | 0.00 | 0.01 | 0.01 | 61 | 1014.2 |
| 20260507155453 | 51 | 251 | 6.0 | 13.0 | 0.00 | 0.01 | 0.01 | 58 | 1014.4 |
| 20260507154950 | 51 | 316 | 9.0 | 13.0 | 0.00 | 0.01 | 0.01 | 62 | 1014.6 |
| 20260507154447 | 50 | 277 | 11.0 | 15.0 | 0.00 | 0.01 | 0.01 | 57 | 1014.6 |
| 20260507153944 | 50 | 293 | 8.0 | 17.0 | 0.00 | 0.01 | 0.01 | 57 | 1014.8 |
| 20260507153441 | 51 | 246 | 5.0 | 10.0 | 0.00 | 0.01 | 0.01 | 59 | 1014.9 |
| 20260507152937 | 50 | 307 | 7.0 | 11.0 | 0.00 | 0.01 | 0.01 | 61 | 1014.7 |
| 20260507152433 | 50 | 329 | 9.0 | 14.0 | 0.00 | 0.01 | 0.01 | 61 | 1014.8 |
| 20260507151929 | 50 | 329 | 12.0 | 18.0 | 0.00 | 0.01 | 0.01 | 59 | 1014.7 |
| 20260507151426 | 50 | 287 | 10.0 | 17.0 | 0.00 | 0.01 | 0.01 | 58 | 1014.8 |
| 20260507150922 | 50 | 338 | 7.0 | 8.0 | 0.00 | 0.01 | 0.01 | 62 | 1014.8 |
| 20260507150420 | 50 | 332 | 9.0 | 11.0 | 0.00 | 0.01 | 0.01 | 61 | 1014.8 |
| 20260507145916 | 49 | 320 | 9.0 | 15.0 | 0.00 | 0.01 | 0.01 | 61 | 1015.0 |
| 20260507145412 | 48 | 328 | 7.0 | 15.0 | 0.00 | 0.01 | 0.01 | 61 | 1014.9 |
| 20260507144909 | 48 | 327 | 13.0 | 18.0 | 0.00 | 0.01 | 0.01 | 59 | 1014.9 |
| 20260507144406 | 48 | 318 | 8.0 | 14.0 | 0.00 | 0.01 | 0.01 | 61 | 1015.0 |
| 20260507143903 | 48 | 315 | 9.0 | 16.0 | 0.00 | 0.01 | 0.01 | 62 | 1015.1 |
| 20260507143400 | 48 | 295 | 14.0 | 17.0 | 0.00 | 0.01 | 0.01 | 62 | 1014.7 |
| 20260507142856 | 49 | 300 | 9.0 | 11.0 | 0.00 | 0.01 | 0.01 | 62 | 1014.9 |
| 20260507142352 | 48 | 331 | 8.0 | 14.0 | 0.00 | 0.01 | 0.01 | 62 | 1014.9 |
| 20260507141849 | 47 | 315 | 8.0 | 15.0 | 0.00 | 0.01 | 0.01 | 62 | 1015.0 |
| 20260507141346 | 48 | 309 | 11.0 | 18.0 | 0.00 | 0.01 | 0.01 | 61 | 1015.0 |
| 20260507140843 | 48 | 324 | 10.0 | 15.0 | 0.00 | 0.01 | 0.01 | 65 | 1015.1 |
| 20260507140339 | 47 | 339 | 6.0 | 10.0 | 0.00 | 0.01 | 0.01 | 66 | 1015.0 |
| 20260507135837 | 46 | 358 | 5.0 | 13.0 | 0.00 | 0.01 | 0.01 | 65 | 1014.9 |
| 20260507135334 | 47 | 13 | 7.0 | 9.0 | 0.00 | 0.01 | 0.01 | 65 | 1014.9 |
| 20260507134832 | 46 | 294 | 11.0 | 16.0 | 0.00 | 0.01 | 0.01 | 65 | 1014.9 |
| 20260507134328 | 45 | 320 | 6.0 | 11.0 | 0.00 | 0.01 | 0.01 | 65 | 1015.1 |
| 20260507133824 | 46 | 289 | 9.0 | 11.0 | 0.00 | 0.01 | 0.01 | 67 | 1015.1 |
| 20260507133319 | 45 | 308 | 8.0 | 11.0 | 0.00 | 0.01 | 0.01 | 68 | 1015.1 |
| 20260507132817 | 46 | 302 | 7.0 | 17.0 | 0.00 | 0.01 | 0.01 | 68 | 1015.3 |
| 20260507132308 | 46 | 8 | 8.0 | 11.0 | 0.00 | 0.01 | 0.01 | 67 | 1015.3 |
| 20260507131805 | 45 | 324 | 9.0 | 11.0 | 0.00 | 0.01 | 0.01 | 69 | 1015.2 |
| 20260507131302 | 45 | 303 | 7.0 | 13.0 | 0.00 | 0.01 | 0.01 | 69 | 1015.3 |